Time,TemperatureF,DewpointF,PressureIn,WindDirection,WindDirectionDegrees,WindSpeedMPH,WindSpeedGustMPH,Humidity,HourlyPrecipIn,Conditions,Clouds,dailyrainin,SolarRadiationWatts/m^2,SoftwareType,DateUTC
2013-02-06 00:00:00,32.1,29.5,29.95,NW,311,0.0,0.0,90,0.00,,,0.00,0.00,VWS V14.00,2013-02-06 05:00:00,
2013-02-06 00:05:00,32.1,29.5,29.94,NW,311,0.0,0.0,90,0.00,,,0.00,0.00,VWS V14.00,2013-02-06 05:05:00,
2013-02-06 00:10:00,32.1,29.5,29.94,NW,311,1.0,1.0,90,0.00,,,0.00,0.00,VWS V14.00,2013-02-06 05:10:00,
2013-02-06 00:15:00,32.1,29.5,29.95,NW,311,0.0,0.0,90,0.00,,,0.00,0.00,VWS V14.00,2013-02-06 05:15:00,
2013-02-06 00:20:00,32.1,29.5,29.95,NW,311,0.0,0.0,90,0.00,,,0.00,0.00,VWS V14.00,2013-02-06 05:20:00,
2013-02-06 00:25:00,32.1,29.5,29.95,NW,311,2.0,2.0,90,0.00,,,0.00,0.00,VWS V14.00,2013-02-06 05:25:00,
2013-02-06 00:30:00,32.0,29.4,29.95,NW,311,1.0,1.0,90,0.00,,,0.00,0.00,VWS V14.00,2013-02-06 05:30:00,
2013-02-06 00:35:00,32.0,29.4,29.95,NW,311,0.0,0.0,90,0.00,,,0.00,0.00,VWS V14.00,2013-02-06 05:35:00,
2013-02-06 00:40:00,31.9,29.3,29.95,NW,311,0.0,0.0,90,0.00,,,0.00,0.00,VWS V14.00,2013-02-06 05:40:00,
2013-02-06 00:45:00,31.9,29.3,29.95,NW,311,0.0,0.0,90,0.00,,,0.00,0.00,VWS V14.00,2013-02-06 05:45:00,
2013-02-06 00:50:00,31.9,29.3,29.95,NW,311,0.0,0.0,90,0.00,,,0.00,0.00,VWS V14.00,2013-02-06 05:50:00,
2013-02-06 00:55:00,31.9,29.3,29.95,NW,311,0.0,0.0,90,0.00,,,0.00,0.00,VWS V14.00,2013-02-06 05:55:00,
2013-02-06 01:00:00,31.7,29.1,29.95,NW,311,0.0,0.0,90,0.00,,,0.00,0.00,VWS V14.00,2013-02-06 06:00:00,
2013-02-06 01:05:00,31.6,29.0,29.95,NW,311,0.0,0.0,90,0.00,,,0.00,0.00,VWS V14.00,2013-02-06 06:05:00,
2013-02-06 01:10:00,31.4,28.8,29.95,NW,311,1.0,1.0,90,0.00,,,0.00,0.00,VWS V14.00,2013-02-06 06:10:00,
2013-02-06 01:15:00,31.3,28.7,29.95,NW,311,1.0,1.0,90,0.00,,,0.00,0.00,VWS V14.00,2013-02-06 06:15:00,
2013-02-06 01:20:00,31.2,28.6,29.95,NW,311,0.0,0.0,90,0.00,,,0.00,0.00,VWS V14.00,2013-02-06 06:20:00,
2013-02-06 01:25:00,31.1,28.5,29.95,NW,311,0.0,0.0,90,0.00,,,0.00,0.00,VWS V14.00,2013-02-06 06:25:00,
2013-02-06 01:30:00,31.0,28.4,29.95,NW,311,0.0,0.0,90,0.00,,,0.00,0.00,VWS V14.00,2013-02-06 06:30:00,
2013-02-06 01:35:00,30.8,28.5,29.95,NW,311,0.0,0.0,91,0.00,,,0.00,0.00,VWS V14.00,2013-02-06 06:35:00,
2013-02-06 01:40:00,30.6,28.3,29.95,NW,311,1.0,1.0,91,0.00,,,0.00,0.00,VWS V14.00,2013-02-06 06:40:00,
2013-02-06 01:45:00,30.5,28.2,29.95,NW,311,0.0,0.0,91,0.00,,,0.00,0.00,VWS V14.00,2013-02-06 06:45:00,
2013-02-06 01:50:00,30.6,28.3,29.95,NW,311,0.0,0.0,91,0.00,,,0.00,0.00,VWS V14.00,2013-02-06 06:50:00,
2013-02-06 01:55:00,30.5,28.2,29.95,NW,311,0.0,0.0,91,0.00,,,0.00,0.00,VWS V14.00,2013-02-06 06:55:00,
2013-02-06 02:00:00,30.3,28.0,29.95,NW,311,0.0,0.0,91,0.00,,,0.00,0.00,VWS V14.00,2013-02-06 07:00:00,
2013-02-06 02:05:00,30.2,27.9,29.95,NW,311,0.0,0.0,91,0.00,,,0.00,0.00,VWS V14.00,2013-02-06 07:05:00,
2013-02-06 02:10:00,30.1,27.8,29.95,NW,311,0.0,0.0,91,0.00,,,0.00,0.00,VWS V14.00,2013-02-06 07:10:00,
2013-02-06 02:15:00,30.1,27.8,29.95,NW,311,2.0,2.0,91,0.00,,,0.00,0.00,VWS V14.00,2013-02-06 07:15:00,
2013-02-06 02:20:00,30.1,27.8,29.95,NW,311,1.0,1.0,91,0.00,,,0.00,0.00,VWS V14.00,2013-02-06 07:20:00,
2013-02-06 02:25:00,30.0,27.7,29.95,NW,311,1.0,1.0,91,0.00,,,0.00,0.00,VWS V14.00,2013-02-06 07:25:00,
2013-02-06 02:30:00,30.0,27.7,29.95,NW,311,0.0,0.0,91,0.00,,,0.00,0.00,VWS V14.00,2013-02-06 07:30:00,
2013-02-06 02:35:00,29.9,27.6,29.95,NW,311,0.0,0.0,91,0.00,,,0.00,0.00,VWS V14.00,2013-02-06 07:35:00,
2013-02-06 02:40:00,29.8,27.5,29.95,NW,311,0.0,0.0,91,0.00,,,0.00,0.00,VWS V14.00,2013-02-06 07:40:00,
2013-02-06 02:45:00,29.7,27.4,29.95,NW,311,0.0,0.0,91,0.00,,,0.00,0.00,VWS V14.00,2013-02-06 07:45:00,
2013-02-06 02:50:00,29.7,27.4,29.96,NW,311,1.0,1.0,91,0.00,,,0.00,0.00,VWS V14.00,2013-02-06 07:50:00,
2013-02-06 02:55:00,29.7,27.4,29.95,NW,311,1.0,1.0,91,0.00,,,0.00,0.00,VWS V14.00,2013-02-06 07:55:00,
2013-02-06 03:00:00,29.7,27.7,29.95,NW,311,1.0,1.0,92,0.00,,,0.00,0.00,VWS V14.00,2013-02-06 08:00:00,
2013-02-06 03:05:00,29.8,27.5,29.95,NW,311,1.0,1.0,91,0.00,,,0.00,0.00,VWS V14.00,2013-02-06 08:05:00,
2013-02-06 03:10:00,29.8,27.8,29.95,NW,311,2.0,2.0,92,0.00,,,0.00,0.00,VWS V14.00,2013-02-06 08:10:00,
2013-02-06 03:15:00,29.7,27.7,29.96,NW,311,2.0,2.0,92,0.00,,,0.00,0.00,VWS V14.00,2013-02-06 08:15:00,
2013-02-06 03:21:00,29.6,27.6,29.96,NW,311,1.0,1.0,92,0.00,,,0.00,0.00,VWS V14.00,2013-02-06 08:21:00,
2013-02-06 03:26:00,29.6,27.6,29.96,NW,314,1.0,1.0,92,0.00,,,0.00,0.00,VWS V14.00,2013-02-06 08:26:00,
2013-02-06 03:31:00,29.5,27.5,29.96,NW,314,2.0,2.0,92,0.00,,,0.00,0.00,VWS V14.00,2013-02-06 08:31:00,
2013-02-06 03:36:00,29.4,27.4,29.97,NW,314,1.0,1.0,92,0.00,,,0.00,0.00,VWS V14.00,2013-02-06 08:36:00,
2013-02-06 03:41:00,29.1,27.1,29.96,NW,314,1.0,1.0,92,0.00,,,0.00,0.00,VWS V14.00,2013-02-06 08:41:00,
2013-02-06 03:46:00,29.1,27.1,29.97,NW,315,1.0,1.0,92,0.00,,,0.00,0.00,VWS V14.00,2013-02-06 08:46:00,
2013-02-06 03:51:00,29.0,27.0,29.97,NW,314,1.0,1.0,92,0.00,,,0.00,0.00,VWS V14.00,2013-02-06 08:51:00,
2013-02-06 03:56:00,29.0,27.0,29.96,NW,311,1.0,1.0,92,0.00,,,0.00,0.00,VWS V14.00,2013-02-06 08:56:00,
2013-02-06 04:01:00,28.8,26.8,29.96,NW,311,0.0,0.0,92,0.00,,,0.00,0.00,VWS V14.00,2013-02-06 09:01:00,
2013-02-06 04:06:00,28.7,26.7,29.97,NW,311,1.0,1.0,92,0.00,,,0.00,0.00,VWS V14.00,2013-02-06 09:06:00,
2013-02-06 04:11:00,28.7,26.7,29.97,NW,311,0.0,0.0,92,0.00,,,0.00,0.00,VWS V14.00,2013-02-06 09:11:00,
2013-02-06 04:16:00,28.7,26.7,29.97,NW,311,2.0,2.0,92,0.00,,,0.00,0.00,VWS V14.00,2013-02-06 09:16:00,
2013-02-06 04:21:00,28.8,26.8,29.98,NW,309,3.0,3.0,92,0.00,,,0.00,0.00,VWS V14.00,2013-02-06 09:21:00,
2013-02-06 04:26:00,28.8,26.8,29.99,NW,309,2.0,2.0,92,0.00,,,0.00,0.00,VWS V14.00,2013-02-06 09:26:00,
2013-02-06 04:31:00,29.0,27.0,29.99,West,277,2.0,2.0,92,0.00,,,0.00,0.00,VWS V14.00,2013-02-06 09:31:00,
2013-02-06 04:36:00,29.2,27.2,29.99,West,277,3.0,3.0,92,0.00,,,0.00,0.00,VWS V14.00,2013-02-06 09:36:00,
2013-02-06 04:41:00,29.4,27.4,29.99,West,276,2.0,2.0,92,0.00,,,0.00,0.00,VWS V14.00,2013-02-06 09:41:00,
2013-02-06 04:46:00,29.3,27.3,29.99,West,276,3.0,3.0,92,0.00,,,0.00,0.00,VWS V14.00,2013-02-06 09:46:00,
2013-02-06 04:51:00,29.3,27.3,30.00,West,276,2.0,2.0,92,0.00,,,0.00,0.00,VWS V14.00,2013-02-06 09:51:00,
2013-02-06 04:56:00,29.2,27.2,30.00,West,276,1.0,1.0,92,0.00,,,0.00,0.00,VWS V14.00,2013-02-06 09:56:00,
2013-02-06 05:01:00,29.1,27.1,30.00,West,276,2.0,2.0,92,0.00,,,0.00,0.00,VWS V14.00,2013-02-06 10:01:00,
2013-02-06 05:06:00,29.0,27.0,30.00,West,276,2.0,2.0,92,0.00,,,0.00,0.00,VWS V14.00,2013-02-06 10:06:00,
2013-02-06 05:11:00,29.0,27.0,30.01,WNW,290,1.0,1.0,92,0.00,,,0.00,0.00,VWS V14.00,2013-02-06 10:11:00,
2013-02-06 05:16:00,28.8,26.8,30.01,WNW,290,2.0,2.0,92,0.00,,,0.00,0.00,VWS V14.00,2013-02-06 10:16:00,
2013-02-06 05:21:00,28.7,26.7,30.02,WNW,290,0.0,0.0,92,0.00,,,0.00,0.00,VWS V14.00,2013-02-06 10:21:00,
2013-02-06 05:26:00,28.7,26.7,30.02,WNW,290,2.0,2.0,92,0.00,,,0.00,0.00,VWS V14.00,2013-02-06 10:26:00,
2013-02-06 05:31:00,28.6,26.6,30.02,WNW,290,2.0,2.0,92,0.00,,,0.00,0.00,VWS V14.00,2013-02-06 10:31:00,
2013-02-06 05:36:00,28.4,26.4,30.03,WNW,290,1.0,1.0,92,0.00,,,0.00,0.00,VWS V14.00,2013-02-06 10:36:00,
2013-02-06 05:41:00,28.5,26.5,30.03,WNW,290,2.0,2.0,92,0.00,,,0.00,0.00,VWS V14.00,2013-02-06 10:41:00,
2013-02-06 05:46:00,28.5,26.5,30.04,WNW,287,3.0,3.0,92,0.00,,,0.00,0.00,VWS V14.00,2013-02-06 10:46:00,
2013-02-06 05:51:00,28.6,26.6,30.04,WNW,284,3.0,3.0,92,0.00,,,0.00,0.00,VWS V14.00,2013-02-06 10:51:00,
2013-02-06 05:56:00,28.8,26.8,30.04,WNW,284,2.0,2.0,92,0.00,,,0.00,0.00,VWS V14.00,2013-02-06 10:56:00,
2013-02-06 06:01:00,28.9,26.9,30.04,WNW,284,2.0,2.0,92,0.00,,,0.00,0.00,VWS V14.00,2013-02-06 11:01:00,
2013-02-06 06:06:00,29.0,27.0,30.04,WNW,284,2.0,2.0,92,0.00,,,0.00,0.00,VWS V14.00,2013-02-06 11:06:00,
2013-02-06 06:11:00,29.0,27.0,30.05,WNW,284,2.0,2.0,92,0.00,,,0.00,0.00,VWS V14.00,2013-02-06 11:11:00,
2013-02-06 06:16:00,28.9,26.9,30.05,WNW,284,2.0,2.0,92,0.00,,,0.00,0.00,VWS V14.00,2013-02-06 11:16:00,
2013-02-06 06:21:00,28.9,26.9,30.05,WNW,284,2.0,2.0,92,0.00,,,0.00,0.00,VWS V14.00,2013-02-06 11:21:00,
2013-02-06 06:26:00,28.8,26.8,30.05,WNW,284,2.0,2.0,92,0.00,,,0.00,0.00,VWS V14.00,2013-02-06 11:26:00,
2013-02-06 06:31:00,28.8,26.8,30.05,WNW,284,1.0,1.0,92,0.00,,,0.00,0.00,VWS V14.00,2013-02-06 11:31:00,
2013-02-06 06:36:00,28.6,26.6,30.05,WNW,284,1.0,1.0,92,0.00,,,0.00,0.00,VWS V14.00,2013-02-06 11:36:00,
2013-02-06 06:41:00,28.6,26.6,30.05,WSW,251,1.0,1.0,92,0.00,,,0.00,0.00,VWS V14.00,2013-02-06 11:41:00,
2013-02-06 06:46:00,28.5,26.5,30.06,SW,219,1.0,1.0,92,0.00,,,0.00,0.00,VWS V14.00,2013-02-06 11:46:00,
2013-02-06 06:51:00,28.5,26.5,30.06,SW,227,1.0,1.0,92,0.00,,,0.00,0.00,VWS V14.00,2013-02-06 11:51:00,
2013-02-06 06:56:00,28.4,26.4,30.07,SW,236,1.0,1.0,92,0.00,,,0.00,0.00,VWS V14.00,2013-02-06 11:56:00,
2013-02-06 07:01:00,28.3,26.3,30.07,West,269,3.0,3.0,92,0.00,,,0.00,0.00,VWS V14.00,2013-02-06 12:01:00,
2013-02-06 07:06:00,28.5,26.5,30.07,West,271,2.0,2.0,92,0.00,,,0.00,5.00,VWS V14.00,2013-02-06 12:06:00,
2013-02-06 07:11:00,28.7,26.7,30.08,West,273,3.0,3.0,92,0.00,,,0.00,5.00,VWS V14.00,2013-02-06 12:11:00,
2013-02-06 07:16:00,28.8,26.8,30.09,West,280,2.0,2.0,92,0.00,,,0.00,11.00,VWS V14.00,2013-02-06 12:16:00,
2013-02-06 07:21:00,28.9,26.9,30.09,West,273,2.0,2.0,92,0.00,,,0.00,16.00,VWS V14.00,2013-02-06 12:21:00,
2013-02-06 07:26:00,28.9,26.9,30.10,West,271,1.0,1.0,92,0.00,,,0.00,14.00,VWS V14.00,2013-02-06 12:26:00,
2013-02-06 07:31:00,28.9,26.9,30.10,West,271,2.0,2.0,92,0.00,,,0.00,19.00,VWS V14.00,2013-02-06 12:31:00,
2013-02-06 07:36:00,28.9,26.9,30.10,West,271,2.0,2.0,92,0.00,,,0.00,23.00,VWS V14.00,2013-02-06 12:36:00,
2013-02-06 07:42:00,29.0,27.0,30.10,West,271,2.0,2.0,92,0.00,,,0.00,25.00,VWS V14.00,2013-02-06 12:42:00,
2013-02-06 07:47:00,29.3,27.3,30.10,West,269,2.0,2.0,92,0.00,,,0.00,37.00,VWS V14.00,2013-02-06 12:47:00,
2013-02-06 07:52:00,29.7,27.7,30.10,West,267,2.0,2.0,92,0.00,,,0.00,51.00,VWS V14.00,2013-02-06 12:52:00,
2013-02-06 07:57:00,30.1,27.8,30.11,West,265,1.0,1.0,91,0.00,,,0.00,72.00,VWS V14.00,2013-02-06 12:57:00,
2013-02-06 08:02:00,30.3,28.0,30.11,West,272,1.0,1.0,91,0.00,,,0.00,97.00,VWS V14.00,2013-02-06 13:02:00,
2013-02-06 08:07:00,30.6,28.3,30.11,West,281,1.0,1.0,91,0.00,,,0.00,121.00,VWS V14.00,2013-02-06 13:07:00,
2013-02-06 08:12:00,30.9,28.6,30.11,West,281,2.0,2.0,91,0.00,,,0.00,163.00,VWS V14.00,2013-02-06 13:12:00,
2013-02-06 08:17:00,31.1,28.5,30.12,West,279,2.0,2.0,90,0.00,,,0.00,213.00,VWS V14.00,2013-02-06 13:17:00,
2013-02-06 08:22:00,31.4,28.8,30.12,West,279,2.0,2.0,90,0.00,,,0.00,193.00,VWS V14.00,2013-02-06 13:22:00,
2013-02-06 08:27:00,31.8,29.2,30.12,West,279,2.0,2.0,90,0.00,,,0.00,221.00,VWS V14.00,2013-02-06 13:27:00,
2013-02-06 08:32:00,32.1,29.2,30.12,West,279,1.0,1.0,89,0.00,,,0.00,120.00,VWS V14.00,2013-02-06 13:32:00,
2013-02-06 08:37:00,32.3,29.4,30.12,West,275,2.0,2.0,89,0.00,,,0.00,123.00,VWS V14.00,2013-02-06 13:37:00,
2013-02-06 08:42:00,32.3,29.1,30.12,WSW,257,2.0,2.0,88,0.00,,,0.00,97.00,VWS V14.00,2013-02-06 13:42:00,
2013-02-06 08:47:00,32.3,29.1,30.12,WSW,258,2.0,2.0,88,0.00,,,0.00,97.00,VWS V14.00,2013-02-06 13:47:00,
2013-02-06 08:52:00,32.4,29.2,30.12,West,262,2.0,2.0,88,0.00,,,0.00,104.00,VWS V14.00,2013-02-06 13:52:00,
2013-02-06 08:57:00,32.5,29.1,30.13,West,262,4.0,4.0,87,0.00,,,0.00,98.00,VWS V14.00,2013-02-06 13:57:00,
2013-02-06 09:02:00,32.6,29.2,30.13,West,266,1.0,1.0,87,0.00,,,0.00,91.00,VWS V14.00,2013-02-06 14:02:00,
2013-02-06 09:07:00,32.8,29.4,30.14,West,267,3.0,3.0,87,0.00,,,0.00,88.00,VWS V14.00,2013-02-06 14:07:00,
2013-02-06 09:12:00,32.9,29.2,30.14,West,267,1.0,1.0,86,0.00,,,0.00,90.00,VWS V14.00,2013-02-06 14:12:00,
2013-02-06 09:17:00,33.1,29.4,30.14,WNW,294,0.0,0.0,86,0.00,,,0.01,98.00,VWS V14.00,2013-02-06 14:17:00,
2013-02-06 09:22:00,33.3,29.3,30.14,WNW,302,1.0,1.0,85,0.00,,,0.01,93.00,VWS V14.00,2013-02-06 14:22:00,
2013-02-06 09:27:00,33.4,29.1,30.14,NW,317,3.0,3.0,84,0.00,,,0.01,95.00,VWS V14.00,2013-02-06 14:27:00,
2013-02-06 09:32:00,33.6,29.3,30.14,WNW,285,2.0,2.0,84,0.00,,,0.01,104.00,VWS V14.00,2013-02-06 14:32:00,
2013-02-06 09:37:00,33.7,29.4,30.15,WNW,288,2.0,2.0,84,0.00,,,0.01,98.00,VWS V14.00,2013-02-06 14:37:00,
2013-02-06 09:42:00,33.7,29.1,30.15,NW,308,1.0,1.0,83,0.00,,,0.01,104.00,VWS V14.00,2013-02-06 14:42:00,
2013-02-06 09:47:00,33.9,29.3,30.15,WNW,295,2.0,2.0,83,0.00,,,0.01,118.00,VWS V14.00,2013-02-06 14:47:00,
2013-02-06 09:52:00,34.0,29.4,30.15,WNW,296,4.0,4.0,83,0.00,,,0.01,130.00,VWS V14.00,2013-02-06 14:52:00,
2013-02-06 09:57:00,34.1,29.5,30.15,NNW,336,4.0,4.0,83,0.00,,,0.01,134.00,VWS V14.00,2013-02-06 14:57:00,
2013-02-06 10:02:00,34.4,29.8,30.15,NW,313,2.0,2.0,83,0.00,,,0.01,153.00,VWS V14.00,2013-02-06 15:02:00,
2013-02-06 10:07:00,34.4,29.5,30.15,NW,306,3.0,3.0,82,0.00,,,0.01,174.00,VWS V14.00,2013-02-06 15:07:00,
2013-02-06 10:12:00,34.6,29.4,30.16,WNW,290,4.0,4.0,81,0.00,,,0.01,174.00,VWS V14.00,2013-02-06 15:12:00,
2013-02-06 10:17:00,34.8,29.6,30.16,West,277,5.0,5.0,81,0.00,,,0.01,181.00,VWS V14.00,2013-02-06 15:17:00,
2013-02-06 10:22:00,35.0,29.8,30.16,West,279,2.0,2.0,81,0.00,,,0.01,202.00,VWS V14.00,2013-02-06 15:22:00,
2013-02-06 10:27:00,35.2,30.0,30.16,WSW,257,4.0,4.0,81,0.00,,,0.01,234.00,VWS V14.00,2013-02-06 15:27:00,
2013-02-06 10:32:00,35.4,29.9,30.16,WNW,292,5.0,5.0,80,0.00,,,0.01,221.00,VWS V14.00,2013-02-06 15:32:00,
2013-02-06 10:37:00,35.5,29.6,30.16,WNW,303,0.0,0.0,79,0.00,,,0.01,218.00,VWS V14.00,2013-02-06 15:37:00,
2013-02-06 10:42:00,35.7,30.1,30.16,West,269,1.0,1.0,80,0.00,,,0.01,241.00,VWS V14.00,2013-02-06 15:42:00,
2013-02-06 10:47:00,36.0,30.4,30.16,WNW,296,3.0,3.0,80,0.00,,,0.01,313.00,VWS V14.00,2013-02-06 15:47:00,
2013-02-06 10:52:00,36.2,30.3,30.17,West,281,4.0,4.0,79,0.00,,,0.01,290.00,VWS V14.00,2013-02-06 15:52:00,
2013-02-06 10:57:00,36.2,30.0,30.17,West,269,2.0,2.0,78,0.00,,,0.01,283.00,VWS V14.00,2013-02-06 15:57:00,
2013-02-06 11:02:00,36.4,30.2,30.17,WNW,290,3.0,3.0,78,0.00,,,0.01,265.00,VWS V14.00,2013-02-06 16:02:00,
2013-02-06 11:07:00,36.9,30.7,30.17,SW,236,4.0,4.0,78,0.00,,,0.01,285.00,VWS V14.00,2013-02-06 16:07:00,
2013-02-06 11:12:00,36.9,29.7,30.17,WNW,284,3.0,3.0,75,0.00,,,0.01,202.00,VWS V14.00,2013-02-06 16:12:00,
2013-02-06 11:17:00,36.8,29.6,30.17,West,259,11.0,11.0,75,0.00,,,0.01,264.00,VWS V14.00,2013-02-06 16:17:00,
2013-02-06 11:22:00,37.0,29.5,30.17,NNW,335,13.0,13.0,74,0.00,,,0.01,116.00,VWS V14.00,2013-02-06 16:22:00,
2013-02-06 11:27:00,36.8,29.3,30.17,NW,311,2.0,2.0,74,0.00,,,0.01,95.00,VWS V14.00,2013-02-06 16:27:00,
2013-02-06 11:32:00,36.6,28.4,30.17,WNW,294,6.0,6.0,72,0.00,,,0.01,114.00,VWS V14.00,2013-02-06 16:32:00,
2013-02-06 11:37:00,36.5,28.4,30.17,NNW,337,6.0,6.0,72,0.00,,,0.01,121.00,VWS V14.00,2013-02-06 16:37:00,
2013-02-06 11:42:00,36.5,28.0,30.17,NW,318,3.0,3.0,71,0.00,,,0.01,93.00,VWS V14.00,2013-02-06 16:42:00,
2013-02-06 11:47:00,36.5,28.4,30.17,NW,304,2.0,2.0,72,0.00,,,0.01,109.00,VWS V14.00,2013-02-06 16:47:00,
2013-02-06 11:52:00,36.6,28.4,30.17,NW,315,6.0,6.0,72,0.00,,,0.01,113.00,VWS V14.00,2013-02-06 16:52:00,
2013-02-06 11:57:00,36.7,28.5,30.17,West,281,2.0,2.0,72,0.00,,,0.01,107.00,VWS V14.00,2013-02-06 16:57:00,
2013-02-06 12:02:00,36.8,28.6,30.17,WNW,282,3.0,3.0,72,0.00,,,0.01,158.00,VWS V14.00,2013-02-06 17:02:00,
2013-02-06 12:07:00,36.9,28.7,30.17,NW,307,3.0,3.0,72,0.00,,,0.01,109.00,VWS V14.00,2013-02-06 17:07:00,
2013-02-06 12:12:00,37.0,28.1,30.17,NW,316,4.0,4.0,70,0.00,,,0.01,246.00,VWS V14.00,2013-02-06 17:12:00,
2013-02-06 12:17:00,37.1,27.5,30.17,NW,305,6.0,6.0,68,0.00,,,0.01,146.00,VWS V14.00,2013-02-06 17:17:00,
2013-02-06 12:22:00,37.3,28.1,30.17,NW,317,10.0,10.0,69,0.00,,,0.01,132.00,VWS V14.00,2013-02-06 17:22:00,
2013-02-06 12:27:00,37.3,27.7,30.17,WNW,286,4.0,4.0,68,0.00,,,0.01,149.00,VWS V14.00,2013-02-06 17:27:00,
2013-02-06 12:32:00,37.3,27.7,30.16,West,277,4.0,4.0,68,0.00,,,0.01,139.00,VWS V14.00,2013-02-06 17:32:00,
2013-02-06 12:37:00,37.4,27.8,30.16,NW,309,6.0,6.0,68,0.00,,,0.01,121.00,VWS V14.00,2013-02-06 17:37:00,
2013-02-06 12:42:00,37.3,27.4,30.17,WNW,284,4.0,4.0,67,0.00,,,0.01,141.00,VWS V14.00,2013-02-06 17:42:00,
2013-02-06 12:47:00,37.3,27.7,30.16,WNW,298,2.0,2.0,68,0.00,,,0.01,132.00,VWS V14.00,2013-02-06 17:47:00,
2013-02-06 12:52:00,37.4,27.8,30.16,NW,313,3.0,3.0,68,0.00,,,0.01,144.00,VWS V14.00,2013-02-06 17:52:00,
2013-02-06 12:57:00,37.5,27.9,30.17,WNW,291,3.0,3.0,68,0.00,,,0.01,125.00,VWS V14.00,2013-02-06 17:57:00,
2013-02-06 13:02:00,37.5,27.9,30.17,NW,309,4.0,4.0,68,0.00,,,0.01,132.00,VWS V14.00,2013-02-06 18:02:00,
2013-02-06 13:07:00,37.5,27.9,30.17,West,279,3.0,3.0,68,0.00,,,0.01,146.00,VWS V14.00,2013-02-06 18:07:00,
2013-02-06 13:12:00,37.6,27.6,30.17,NW,324,1.0,1.0,67,0.00,,,0.01,123.00,VWS V14.00,2013-02-06 18:12:00,
2013-02-06 13:17:00,37.6,28.0,30.17,West,281,4.0,4.0,68,0.00,,,0.01,142.00,VWS V14.00,2013-02-06 18:17:00,
2013-02-06 13:22:00,37.7,27.8,30.17,NW,315,3.0,3.0,67,0.00,,,0.01,192.00,VWS V14.00,2013-02-06 18:22:00,
2013-02-06 13:27:00,37.9,27.9,30.17,NW,304,9.0,9.0,67,0.00,,,0.01,155.00,VWS V14.00,2013-02-06 18:27:00,
2013-02-06 13:32:00,38.0,27.7,30.17,WNW,290,5.0,5.0,66,0.00,,,0.01,156.00,VWS V14.00,2013-02-06 18:32:00,
2013-02-06 13:37:00,38.0,27.3,30.17,NW,306,4.0,4.0,65,0.00,,,0.01,132.00,VWS V14.00,2013-02-06 18:37:00,
2013-02-06 13:42:00,38.2,27.9,30.17,West,269,6.0,6.0,66,0.00,,,0.01,127.00,VWS V14.00,2013-02-06 18:42:00,
2013-02-06 13:47:00,38.2,27.1,30.18,NNW,333,6.0,6.0,64,0.00,,,0.01,149.00,VWS V14.00,2013-02-06 18:47:00,
2013-02-06 13:52:00,38.2,27.1,30.17,NW,304,7.0,7.0,64,0.00,,,0.01,142.00,VWS V14.00,2013-02-06 18:52:00,
2013-02-06 13:57:00,38.2,27.1,30.18,WNW,288,9.0,9.0,64,0.00,,,0.01,186.00,VWS V14.00,2013-02-06 18:57:00,
2013-02-06 14:02:00,38.3,27.2,30.18,WNW,300,6.0,6.0,64,0.00,,,0.01,197.00,VWS V14.00,2013-02-06 19:02:00,
2013-02-06 14:07:00,38.5,27.4,30.18,NW,312,6.0,6.0,64,0.00,,,0.01,204.00,VWS V14.00,2013-02-06 19:07:00,
2013-02-06 14:12:00,38.7,27.2,30.18,WNW,299,7.0,7.0,63,0.00,,,0.01,223.00,VWS V14.00,2013-02-06 19:12:00,
2013-02-06 14:17:00,38.7,26.8,30.18,NW,305,6.0,6.0,62,0.00,,,0.01,181.00,VWS V14.00,2013-02-06 19:17:00,
2013-02-06 14:22:00,38.6,26.7,30.18,NW,320,6.0,6.0,62,0.00,,,0.01,148.00,VWS V14.00,2013-02-06 19:22:00,
2013-02-06 14:27:00,38.4,26.5,30.18,NW,318,10.0,10.0,62,0.00,,,0.01,137.00,VWS V14.00,2013-02-06 19:27:00,
2013-02-06 14:32:00,38.3,26.4,30.18,NW,307,3.0,3.0,62,0.00,,,0.01,130.00,VWS V14.00,2013-02-06 19:32:00,
2013-02-06 14:38:00,38.2,26.7,30.18,NW,313,4.0,4.0,63,0.00,,,0.01,146.00,VWS V14.00,2013-02-06 19:38:00,
2013-02-06 14:43:00,38.7,27.2,30.18,NW,311,9.0,9.0,63,0.00,,,0.01,429.00,VWS V14.00,2013-02-06 19:43:00,
2013-02-06 14:48:00,39.3,27.8,30.18,NW,304,10.0,10.0,63,0.00,,,0.01,457.00,VWS V14.00,2013-02-06 19:48:00,
2013-02-06 14:53:00,39.7,27.8,30.18,NW,325,6.0,6.0,62,0.00,,,0.01,452.00,VWS V14.00,2013-02-06 19:53:00,
2013-02-06 14:58:00,39.9,27.6,30.18,NW,309,9.0,9.0,61,0.00,,,0.01,385.00,VWS V14.00,2013-02-06 19:58:00,
2013-02-06 15:03:00,39.6,27.3,30.18,WNW,289,6.0,6.0,61,0.00,,,0.01,343.00,VWS V14.00,2013-02-06 20:03:00,
2013-02-06 15:08:00,39.6,27.7,30.18,NW,317,10.0,10.0,62,0.00,,,0.01,325.00,VWS V14.00,2013-02-06 20:08:00,
2013-02-06 15:13:00,39.4,27.5,30.19,NW,311,7.0,7.0,62,0.00,,,0.01,330.00,VWS V14.00,2013-02-06 20:13:00,
2013-02-06 15:18:00,39.3,27.0,30.19,NW,321,16.0,16.0,61,0.00,,,0.01,204.00,VWS V14.00,2013-02-06 20:18:00,
2013-02-06 15:23:00,38.9,27.0,30.19,WNW,298,9.0,9.0,62,0.00,,,0.01,297.00,VWS V14.00,2013-02-06 20:23:00,
2013-02-06 15:28:00,39.1,27.6,30.19,NW,325,7.0,7.0,63,0.00,,,0.01,86.00,VWS V14.00,2013-02-06 20:28:00,
2013-02-06 15:33:00,38.9,27.4,30.20,NNW,327,5.0,5.0,63,0.00,,,0.01,121.00,VWS V14.00,2013-02-06 20:33:00,
2013-02-06 15:38:00,38.7,27.2,30.20,NNW,340,9.0,9.0,63,0.00,,,0.01,288.00,VWS V14.00,2013-02-06 20:38:00,
2013-02-06 15:43:00,39.0,27.5,30.20,NW,321,4.0,4.0,63,0.00,,,0.01,241.00,VWS V14.00,2013-02-06 20:43:00,
2013-02-06 15:48:00,39.2,27.7,30.20,NW,318,6.0,6.0,63,0.00,,,0.01,223.00,VWS V14.00,2013-02-06 20:48:00,
2013-02-06 15:53:00,39.1,27.2,30.20,NW,310,5.0,5.0,62,0.00,,,0.01,214.00,VWS V14.00,2013-02-06 20:53:00,
2013-02-06 15:58:00,38.9,26.6,30.20,West,279,8.0,8.0,61,0.00,,,0.01,202.00,VWS V14.00,2013-02-06 20:58:00,
2013-02-06 16:03:00,39.1,27.6,30.21,WNW,288,11.0,11.0,63,0.00,,,0.01,181.00,VWS V14.00,2013-02-06 21:03:00,
2013-02-06 16:08:00,39.1,27.2,30.21,NW,307,5.0,5.0,62,0.00,,,0.01,178.00,VWS V14.00,2013-02-06 21:08:00,
2013-02-06 16:13:00,39.1,27.2,30.21,NNW,332,12.0,12.0,62,0.00,,,0.01,183.00,VWS V14.00,2013-02-06 21:13:00,
2013-02-06 16:18:00,39.2,28.1,30.21,NW,316,5.0,5.0,64,0.00,,,0.01,63.00,VWS V14.00,2013-02-06 21:18:00,
2013-02-06 16:23:00,38.9,27.4,30.22,NW,321,12.0,12.0,63,0.00,,,0.01,95.00,VWS V14.00,2013-02-06 21:23:00,
2013-02-06 16:28:00,38.7,27.6,30.22,NNW,341,5.0,5.0,64,0.00,,,0.01,67.00,VWS V14.00,2013-02-06 21:28:00,
2013-02-06 16:33:00,38.5,27.0,30.22,NW,323,5.0,5.0,63,0.00,,,0.01,44.00,VWS V14.00,2013-02-06 21:33:00,
2013-02-06 16:38:00,38.2,27.1,30.23,NNW,340,6.0,6.0,64,0.00,,,0.01,60.00,VWS V14.00,2013-02-06 21:38:00,
2013-02-06 16:43:00,38.2,27.1,30.23,NW,319,3.0,3.0,64,0.00,,,0.01,63.00,VWS V14.00,2013-02-06 21:43:00,
2013-02-06 16:48:00,38.3,27.2,30.23,NW,317,5.0,5.0,64,0.00,,,0.01,60.00,VWS V14.00,2013-02-06 21:48:00,
2013-02-06 16:53:00,38.2,27.5,30.23,NW,304,10.0,10.0,65,0.00,,,0.01,47.00,VWS V14.00,2013-02-06 21:53:00,
2013-02-06 16:58:00,38.1,27.4,30.23,NW,315,4.0,4.0,65,0.00,,,0.01,23.00,VWS V14.00,2013-02-06 21:58:00,
2013-02-06 17:03:00,37.8,27.1,30.23,NW,317,5.0,5.0,65,0.00,,,0.01,18.00,VWS V14.00,2013-02-06 22:03:00,
2013-02-06 17:08:00,37.5,27.2,30.23,NW,317,4.0,4.0,66,0.00,,,0.01,18.00,VWS V14.00,2013-02-06 22:08:00,
2013-02-06 17:13:00,37.3,27.0,30.24,NNW,338,3.0,3.0,66,0.00,,,0.01,14.00,VWS V14.00,2013-02-06 22:13:00,
2013-02-06 17:18:00,37.1,26.8,30.24,West,277,4.0,4.0,66,0.00,,,0.01,9.00,VWS V14.00,2013-02-06 22:18:00,
2013-02-06 17:23:00,36.8,26.9,30.24,NW,317,4.0,4.0,67,0.00,,,0.01,7.00,VWS V14.00,2013-02-06 22:23:00,
2013-02-06 17:28:00,36.6,26.7,30.25,NW,326,6.0,6.0,67,0.00,,,0.01,0.00,VWS V14.00,2013-02-06 22:28:00,
2013-02-06 17:33:00,36.5,26.6,30.25,NW,321,3.0,3.0,67,0.00,,,0.01,0.00,VWS V14.00,2013-02-06 22:33:00,
2013-02-06 17:38:00,36.3,26.4,30.25,NW,325,5.0,5.0,67,0.00,,,0.01,0.00,VWS V14.00,2013-02-06 22:38:00,
2013-02-06 17:43:00,36.2,26.3,30.25,NW,309,3.0,3.0,67,0.00,,,0.01,0.00,VWS V14.00,2013-02-06 22:43:00,
2013-02-06 17:48:00,36.1,26.2,30.26,NNW,348,3.0,3.0,67,0.00,,,0.01,0.00,VWS V14.00,2013-02-06 22:48:00,
2013-02-06 17:53:00,36.0,26.1,30.25,West,281,3.0,3.0,67,0.00,,,0.01,0.00,VWS V14.00,2013-02-06 22:53:00,
2013-02-06 17:58:00,36.0,26.1,30.25,NW,315,2.0,2.0,67,0.00,,,0.01,0.00,VWS V14.00,2013-02-06 22:58:00,
2013-02-06 18:03:00,35.8,25.9,30.25,NW,307,4.0,4.0,67,0.00,,,0.01,0.00,VWS V14.00,2013-02-06 23:03:00,
2013-02-06 18:08:00,35.7,25.8,30.26,NW,324,4.0,4.0,67,0.00,,,0.01,0.00,VWS V14.00,2013-02-06 23:08:00,
2013-02-06 18:13:00,35.6,25.7,30.27,West,279,5.0,5.0,67,0.00,,,0.01,0.00,VWS V14.00,2013-02-06 23:13:00,
2013-02-06 18:18:00,35.5,25.6,30.27,NNW,327,3.0,3.0,67,0.00,,,0.01,0.00,VWS V14.00,2013-02-06 23:18:00,
2013-02-06 18:23:00,35.5,25.6,30.27,NW,311,2.0,2.0,67,0.00,,,0.01,0.00,VWS V14.00,2013-02-06 23:23:00,
2013-02-06 18:28:00,35.4,25.5,30.27,WNW,284,3.0,3.0,67,0.00,,,0.01,0.00,VWS V14.00,2013-02-06 23:28:00,
2013-02-06 18:33:00,35.2,25.4,30.28,WNW,298,1.0,1.0,67,0.00,,,0.01,0.00,VWS V14.00,2013-02-06 23:33:00,
2013-02-06 18:38:00,35.1,25.3,30.28,NW,314,3.0,3.0,67,0.00,,,0.01,0.00,VWS V14.00,2013-02-06 23:38:00,
2013-02-06 18:43:00,35.1,25.3,30.29,WNW,283,2.0,2.0,67,0.00,,,0.01,0.00,VWS V14.00,2013-02-06 23:43:00,
2013-02-06 18:48:00,34.9,25.1,30.29,NW,309,4.0,4.0,67,0.00,,,0.01,0.00,VWS V14.00,2013-02-06 23:48:00,
2013-02-06 18:53:00,34.8,25.3,30.28,NW,322,3.0,3.0,68,0.00,,,0.01,0.00,VWS V14.00,2013-02-06 23:53:00,
2013-02-06 18:58:00,34.6,25.1,30.28,WNW,291,3.0,3.0,68,0.00,,,0.01,0.00,VWS V14.00,2013-02-06 23:58:00,
2013-02-06 19:03:00,34.4,25.0,30.29,WNW,296,3.0,3.0,68,0.00,,,0.01,0.00,VWS V14.00,2013-02-07 00:03:00,
2013-02-06 19:08:00,34.4,25.0,30.29,WNW,296,2.0,2.0,68,0.00,,,0.01,0.00,VWS V14.00,2013-02-07 00:08:00,
2013-02-06 19:13:00,34.4,25.0,30.29,NW,317,2.0,2.0,68,0.00,,,0.01,0.00,VWS V14.00,2013-02-07 00:13:00,
2013-02-06 19:18:00,34.4,25.0,30.29,NW,311,1.0,1.0,68,0.00,,,0.01,0.00,VWS V14.00,2013-02-07 00:18:00,
2013-02-06 19:23:00,34.2,24.8,30.30,WNW,292,2.0,2.0,68,0.00,,,0.01,0.00,VWS V14.00,2013-02-07 00:23:00,
2013-02-06 19:28:00,33.9,24.5,30.30,WNW,292,1.0,1.0,68,0.00,,,0.01,0.00,VWS V14.00,2013-02-07 00:28:00,
2013-02-06 19:33:00,33.4,24.7,30.30,WNW,292,1.0,1.0,70,0.00,,,0.01,0.00,VWS V14.00,2013-02-07 00:33:00,
2013-02-06 19:38:00,33.3,24.2,30.30,WNW,292,1.0,1.0,69,0.00,,,0.01,0.00,VWS V14.00,2013-02-07 00:38:00,
2013-02-06 19:43:00,33.2,24.5,30.30,WNW,292,2.0,2.0,70,0.00,,,0.01,0.00,VWS V14.00,2013-02-07 00:43:00,
2013-02-06 19:48:00,33.0,24.3,30.30,WNW,292,1.0,1.0,70,0.00,,,0.01,0.00,VWS V14.00,2013-02-07 00:48:00,
2013-02-06 19:53:00,32.7,24.4,30.31,WNW,292,1.0,1.0,71,0.00,,,0.01,0.00,VWS V14.00,2013-02-07 00:53:00,
2013-02-06 19:58:00,32.5,24.2,30.31,WNW,292,0.0,0.0,71,0.00,,,0.01,0.00,VWS V14.00,2013-02-07 00:58:00,
2013-02-06 20:04:00,32.6,24.2,30.31,WNW,292,1.0,1.0,71,0.00,,,0.01,0.00,VWS V14.00,2013-02-07 01:04:00,
2013-02-06 20:09:00,32.7,24.4,30.31,WNW,292,3.0,3.0,71,0.00,,,0.01,0.00,VWS V14.00,2013-02-07 01:09:00,
2013-02-06 20:14:00,32.9,24.5,30.31,WNW,292,2.0,2.0,71,0.00,,,0.01,0.00,VWS V14.00,2013-02-07 01:14:00,
2013-02-06 20:19:00,32.8,24.5,30.31,WNW,300,3.0,3.0,71,0.00,,,0.01,0.00,VWS V14.00,2013-02-07 01:19:00,
2013-02-06 20:24:00,32.8,24.5,30.31,WNW,298,1.0,1.0,71,0.00,,,0.01,0.00,VWS V14.00,2013-02-07 01:24:00,
2013-02-06 20:29:00,32.6,24.2,30.31,WNW,298,1.0,1.0,71,0.00,,,0.01,0.00,VWS V14.00,2013-02-07 01:29:00,
2013-02-06 20:34:00,32.6,24.2,30.31,WNW,298,2.0,2.0,71,0.00,,,0.01,0.00,VWS V14.00,2013-02-07 01:34:00,
2013-02-06 20:39:00,32.6,24.2,30.31,NW,309,4.0,4.0,71,0.00,,,0.01,0.00,VWS V14.00,2013-02-07 01:39:00,
2013-02-06 20:44:00,32.4,24.1,30.31,NW,313,2.0,2.0,71,0.00,,,0.01,0.00,VWS V14.00,2013-02-07 01:44:00,
2013-02-06 20:49:00,32.3,24.0,30.31,NW,310,3.0,3.0,71,0.00,,,0.01,0.00,VWS V14.00,2013-02-07 01:49:00,
2013-02-06 20:54:00,32.3,24.0,30.32,NW,325,4.0,4.0,71,0.00,,,0.01,0.00,VWS V14.00,2013-02-07 01:54:00,
2013-02-06 20:59:00,32.4,24.1,30.32,NW,315,1.0,1.0,71,0.00,,,0.01,0.00,VWS V14.00,2013-02-07 01:59:00,
2013-02-06 21:04:00,32.2,23.9,30.32,NW,315,2.0,2.0,71,0.00,,,0.01,0.00,VWS V14.00,2013-02-07 02:04:00,
2013-02-06 21:09:00,32.0,23.7,30.32,NW,315,0.0,0.0,71,0.00,,,0.01,0.00,VWS V14.00,2013-02-07 02:09:00,
2013-02-06 21:14:00,31.9,23.6,30.32,NW,315,1.0,1.0,71,0.00,,,0.01,0.00,VWS V14.00,2013-02-07 02:14:00,
2013-02-06 21:19:00,31.7,23.4,30.33,NW,315,0.0,0.0,71,0.00,,,0.01,0.00,VWS V14.00,2013-02-07 02:19:00,
2013-02-06 21:24:00,31.0,23.0,30.34,NW,315,0.0,0.0,72,0.00,,,0.01,0.00,VWS V14.00,2013-02-07 02:24:00,
2013-02-06 21:29:00,30.6,23.0,30.34,NW,315,1.0,1.0,73,0.00,,,0.01,0.00,VWS V14.00,2013-02-07 02:29:00,
2013-02-06 21:34:00,30.4,23.4,30.34,NW,315,1.0,1.0,75,0.00,,,0.01,0.00,VWS V14.00,2013-02-07 02:34:00,
2013-02-06 21:39:00,30.5,23.2,30.35,NW,315,1.0,1.0,74,0.00,,,0.01,0.00,VWS V14.00,2013-02-07 02:39:00,
2013-02-06 21:44:00,30.7,23.4,30.35,NW,315,1.0,1.0,74,0.00,,,0.01,0.00,VWS V14.00,2013-02-07 02:44:00,
2013-02-06 21:49:00,30.6,23.3,30.35,NW,315,0.0,0.0,74,0.00,,,0.01,0.00,VWS V14.00,2013-02-07 02:49:00,
2013-02-06 21:54:00,30.5,23.2,30.35,NW,315,0.0,0.0,74,0.00,,,0.01,0.00,VWS V14.00,2013-02-07 02:54:00,
2013-02-06 21:59:00,30.4,22.8,30.35,NW,315,0.0,0.0,73,0.00,,,0.01,0.00,VWS V14.00,2013-02-07 02:59:00,
2013-02-06 22:04:00,30.3,23.0,30.35,NW,315,2.0,2.0,74,0.00,,,0.01,0.00,VWS V14.00,2013-02-07 03:04:00,
2013-02-06 22:09:00,29.9,22.6,30.35,NW,315,2.0,2.0,74,0.00,,,0.01,0.00,VWS V14.00,2013-02-07 03:09:00,
2013-02-06 22:14:00,29.7,22.4,30.36,NW,315,1.0,1.0,74,0.00,,,0.01,0.00,VWS V14.00,2013-02-07 03:14:00,
2013-02-06 22:19:00,29.8,22.2,30.36,NW,315,2.0,2.0,73,0.00,,,0.01,0.00,VWS V14.00,2013-02-07 03:19:00,
2013-02-06 22:24:00,30.2,21.9,30.36,North,350,2.0,2.0,71,0.00,,,0.01,0.00,VWS V14.00,2013-02-07 03:24:00,
2013-02-06 22:29:00,30.3,21.7,30.36,NNW,346,2.0,2.0,70,0.00,,,0.01,0.00,VWS V14.00,2013-02-07 03:29:00,
2013-02-06 22:34:00,30.1,21.5,30.36,NNW,346,1.0,1.0,70,0.00,,,0.01,0.00,VWS V14.00,2013-02-07 03:34:00,
2013-02-06 22:39:00,29.9,21.3,30.36,NNW,345,1.0,1.0,70,0.00,,,0.01,0.00,VWS V14.00,2013-02-07 03:39:00,
2013-02-06 22:44:00,29.7,21.1,30.36,NNW,336,2.0,2.0,70,0.00,,,0.01,0.00,VWS V14.00,2013-02-07 03:44:00,
2013-02-06 22:49:00,29.5,20.9,30.36,NNW,336,0.0,0.0,70,0.00,,,0.01,0.00,VWS V14.00,2013-02-07 03:49:00,
2013-02-06 22:54:00,29.2,20.6,30.36,NNW,336,0.0,0.0,70,0.00,,,0.01,0.00,VWS V14.00,2013-02-07 03:54:00,
2013-02-06 22:59:00,29.1,20.5,30.36,NNW,336,1.0,1.0,70,0.00,,,0.01,0.00,VWS V14.00,2013-02-07 03:59:00,
2013-02-06 23:04:00,29.1,20.2,30.36,NNW,336,0.0,0.0,69,0.00,,,0.01,0.00,VWS V14.00,2013-02-07 04:04:00,
2013-02-06 23:09:00,29.1,20.2,30.36,NNW,336,0.0,0.0,69,0.00,,,0.01,0.00,VWS V14.00,2013-02-07 04:09:00,
2013-02-06 23:14:00,29.2,20.0,30.36,NNW,336,1.0,1.0,68,0.00,,,0.01,0.00,VWS V14.00,2013-02-07 04:14:00,
2013-02-06 23:19:00,29.4,20.2,30.36,NNW,336,1.0,1.0,68,0.00,,,0.01,0.00,VWS V14.00,2013-02-07 04:19:00,
2013-02-06 23:24:00,29.4,20.2,30.36,NNW,336,0.0,0.0,68,0.00,,,0.01,0.00,VWS V14.00,2013-02-07 04:24:00,
2013-02-06 23:29:00,29.3,19.7,30.37,NNW,336,1.0,1.0,67,0.00,,,0.01,0.00,VWS V14.00,2013-02-07 04:29:00,
2013-02-06 23:34:00,29.3,19.7,30.37,NNW,336,0.0,0.0,67,0.00,,,0.01,0.00,VWS V14.00,2013-02-07 04:34:00,
2013-02-06 23:39:00,29.4,19.8,30.36,NNW,336,0.0,0.0,67,0.00,,,0.01,0.00,VWS V14.00,2013-02-07 04:39:00,
2013-02-06 23:44:00,29.5,19.9,30.37,NNW,336,0.0,0.0,67,0.00,,,0.01,0.00,VWS V14.00,2013-02-07 04:44:00,
2013-02-06 23:49:00,29.7,19.8,30.37,NNW,336,0.0,0.0,66,0.00,,,0.01,0.00,VWS V14.00,2013-02-07 04:49:00,
2013-02-06 23:54:00,29.6,19.6,30.37,NNW,336,0.0,0.0,66,0.00,,,0.01,0.00,VWS V14.00,2013-02-07 04:54:00,
2013-02-06 23:59:00,29.5,19.2,30.37,NNW,336,0.0,0.0,65,0.00,,,0.00,0.00,VWS V14.00,2013-02-07 04:59:00,